Regional Weather Roundup
Issued by NWS

Home | Current Version | Previous Version | Graphics & Text | Print | Product List | Glossary On
Versions: 1 2 3 4 5 6 7 8 9 10 11 12 13 14 15 16 17 18 19 20 21 22 23 24 25 26 27 28 29 30 31 32 33 34 35 36 37 38 39 40 41 42 43 44 45 46 47 48 49 50
000
ASUS43 KMPX 250310
RWRMN
WEATHER ROUNDUP FOR MINNESOTA
NATIONAL WEATHER SERVICE TWIN CITIES/CHANHASSEN MN
1000 PM CDT FRI APR 24 2015


NOTE: "FAIR" INDICATES FEW OR NO CLOUDS BELOW 12,000 FEET WITH NO
SIGNIFICANT WEATHER AND/OR OBSTRUCTIONS TO VISIBILITY. N/A MEANS
CURRENT SKY AND/OR WEATHER CONDITIONS ARE NOT AVAILABLE.

MNZ060>063-068>070-250400-
   Twin Cities Metro

CITY           SKY/WX    TMP DP  RH WIND       PRES   REMARKS
TWIN CITIES    CLOUDY    44  41  89 E14       29.82S
ST PAUL        CLOUDY    46  40  79 SE12      29.84R
CRYSTAL        CLOUDY    46  39  76 SE13G21   29.81R
BLAINE         CLOUDY    48  39  71 E9        29.82S
LAKEVILLE      CLOUDY    41  39  93 E12       29.81R
EDEN PRAIRIE   CLOUDY    44  41  89 E13       29.79R
SOUTH ST PAUL  CLOUDY    45  41  86 SE7       29.83R
LAKE ELMO      CLOUDY    45  39  81 E13G20    29.84S
$$
MNZ001>005-007-008-013>017-022>024-027-028-250400-
   Northwest Minnesota

CITY           SKY/WX    TMP DP  RH WIND       PRES   REMARKS
BEMIDJI        CLOUDY    41  30  65 E13       29.84S
HALLOCK        CLOUDY    46  32  57 E10       29.83S
ROSEAU         CLOUDY    43  34  70 E9        29.87S
WARROAD        CLOUDY    36  34  93 NE8       29.89F
THIEF RVR FALL CLOUDY    45  32  61 E12       29.83S
CROOKSTON      CLOUDY    46  36  66 SE9       29.82R
FOSSTON        CLOUDY    43  32  65 E9        29.82S
DETROIT LAKES  CLOUDY    43  36  75 SE14G20   29.78S
MOORHEAD       CLOUDY    45  39  81 E12       29.78R
PARK RAPIDS    CLOUDY    43  31  62 E13G23    29.80F
MAHNOMEN       CLOUDY    43  33  67 E9        29.79S
$$
MNZ006-009>011-018-025>026-250400-
   North Central Minnesota

CITY           SKY/WX    TMP DP  RH WIND       PRES   REMARKS
BAUDETTE       CLOUDY    40  26  57 E9        29.89R
FLAG ISLAND    CLOUDY    41  27  56 E7        29.91S
INTL FALLS     CLOUDY    40  20  44 E9        29.92R
WASKISH        CLOUDY    43  30  61 CALM      29.87S
BIG FORK       CLOUDY    41  28  60 SE6       29.89S
LONGVILLE      CLOUDY    39  28  65 E5        29.85S
GRAND RAPIDS   CLOUDY    39  25  56 E8G18     29.88S
CRANE LAKE     CLOUDY    37  16  41 CALM      29.96S
ORR            CLOUDY    39  19  45 SE5       29.90S
COOK           CLOUDY    37  19  48 E6        29.93R
WALKER         CLOUDY    40  30  67 E3        29.84S
$$
MNZ012-019>021-037-250400-
   Northeast Minnesota

CITY           SKY/WX    TMP DP  RH WIND       PRES   REMARKS
DULUTH         CLOUDY    35  22  58 E13G24    29.91S WCI  26
ELY            CLOUDY    36  12  38 E8        29.95F
HIBBING        CLOUDY    37  19  48 E10G20    29.91S
EVELETH        CLOUDY    36  18  48 E7        29.93S
DULUTH HARBOR  CLOUDY    36  32  87 NE20G28   29.95R
TWO HARBORS    CLOUDY    37  25  60 NE10      29.94S
SILVER BAY     CLOUDY    36  23  60 NE9G16    29.95F
GRAND MARAIS     N/A     37  20  50 NE9       30.03S
G MARAIS ARPRT CLOUDY    30  18  59 E3        29.99S
$$
MNZ029>031-032-039>041-046>048-054>057-064-250400-
   West Central Minnesota

CITY           SKY/WX    TMP DP  RH WIND       PRES   REMARKS
FERGUS FALLS   CLOUDY    45  37  76 SE14      29.77R
WHEATON        CLOUDY    43  39  87 E17G23    29.74R
MORRIS         CLOUDY    45  43  93 E16       29.72R FOG
ALEXANDRIA     LGT RAIN  42  41  96 E16       29.76S FOG
ELBOW LAKE     CLOUDY    43  41  92 E15G23    29.74R
WADENA         CLOUDY    41  32  70 E12G20    29.78S
GLENWOOD       CLOUDY    43  41  93 E16       29.77R FOG
APPLETON       CLOUDY    46  41  81 E17       29.71R
BENSON         CLOUDY    45  39  81 SE10G16   29.74R
ORTONVILLE     CLOUDY    46  41  81 E14G20    29.70R
MADISON        CLOUDY    46  41  81 E15       29.69S
WILLMAR        MOCLDY    45  43  93 E18       29.75S
$$
MNZ033>034-036-042>043-049>051-058-059-250400-
   Central Minnesota

CITY           SKY/WX    TMP DP  RH WIND       PRES   REMARKS
ST CLOUD       CLOUDY    45  38  76 E9G17     29.80S
SAUK CENTRE    CLOUDY    42  40  93 E12G17    29.78R FOG
PAYNESVILLE    CLOUDY    40  39  94 NE10G17   29.78R
AITKIN         CLOUDY    39  32  75 E7        29.85R
PINE RIVER     CLOUDY    39  32  75 E14G22    29.87S
BRAINERD       CLOUDY    40  32  73 E8        29.84R
STAPLES        CLOUDY    41  32  70 E7        29.80S
LONG PRAIRIE   CLOUDY    41  39  93 E9        29.79S
LITTLE FALLS   MOCLDY    45  34  65 E12G18    29.80F
LITCHFIELD     CLOUDY    45  43  93 E17       29.78R
BUFFALO        CLOUDY    43  39  85 E12       29.82R
MAPLE LAKE     CLOUDY    45  41  88 E10G18    29.81S
$$
MNZ037-044-045-052-053-250400-
   East Central Minnesota

CITY           SKY/WX    TMP DP  RH WIND       PRES   REMARKS
PRINCETON      CLOUDY    46  39  76 E8        29.83S
MORA           CLOUDY    41  30  65 E8        29.87S
CAMBRIDGE      CLOUDY    48  37  66 E7        29.82S
RUSH CITY      CLOUDY    47  35  62 CALM      29.86R
MOOSE LAKE     CLOUDY    36  32  87 E3        29.88S
HINCKLEY       CLOUDY    43  32  65 NE7       29.88R
CLOQUET        CLOUDY    36  25  64 E13G18    29.91S
MCGREGOR       CLOUDY    37  32  81 E10       29.88S
$$
MNZ071>073-080-081-089-090-097-098-250400-
   Southwest Minnesota

CITY           SKY/WX    TMP DP  RH WIND       PRES   REMARKS
MONTEVIDEO     CLOUDY    45  43  93 SE16      29.72R
GRANITE FALLS  CLOUDY    45  41  84 E10G16    29.72R
CANBY          TSTM      46  43  91 E12G18    29.70R
MARSHALL       CLOUDY    45  39  81 E15       29.68R THUNDER
REDWOOD FALLS  CLOUDY    45  41  86 E12G24    29.71S
OLIVIA         CLOUDY    43  36  75 E15G23    29.73R
PIPESTONE      CLOUDY    50  46  87 SE21      29.60F
WINDOM         MOCLDY    46  43  87 E12G17    29.67S
WORTHINGTON    CLOUDY    46  43  87 SE18G26   29.64F
JACKSON        MOCLDY    46  43  87 SE17G23   29.67F
TRACY          CLOUDY    48  44  85 SE12      29.68S
SLAYTON        CLOUDY    47  46  95 SE18      29.64F
$$
MNZ065>067-074>077-082>085-091>093-250400-
   South Central Minnesota

CITY           SKY/WX    TMP DP  RH WIND       PRES   REMARKS
MANKATO        CLOUDY    45  37  76 E16G23    29.76S
NEW ULM        CLOUDY    45  41  87 E10       29.75R
ST JAMES       CLOUDY    46  43  87 E10       29.73R
FAIRMONT       CLOUDY    46  21  36 SE18      29.69F
GLENCOE        CLOUDY    45  41  88 E13G20    29.78R
FARIBAULT      CLOUDY    45  39  81 E15G22    29.79S
OWATONNA       CLOUDY    43  39  87 E17G23    29.78S
WASECA         CLOUDY    43  39  87 E18       29.77S
ALBERT LEA     CLOUDY    45  41  87 E16       29.76R
$$
MNZ078>079-086>088-094>096-250400-
   Southeast Minnesota

CITY           SKY/WX    TMP DP  RH WIND       PRES   REMARKS
ROCHESTER      CLOUDY    42  39  89 E16       29.82R
RED WING       CLOUDY    45  41  87 E14       29.83S
STANTON        DRIZZLE   45  40  85 SE10G21   29.79R
DODGE CENTER   CLOUDY    43  41  93 E16       29.79S
AUSTIN         CLOUDY    43  39  87 E14       29.78R
PRESTON        CLOUDY    42  38  86 SE16G22   29.81S
$$
ABBREVIATIONS USED IN REMARKS
   TC - TEMPERATURES IN CELSIUS
  WCI - WIND CHILL INDEX
   HX - HEAT INDEX
  VSB - VISIBILITY
$$



USA.gov is the U.S. government's official web portal to all federal, state and local government web resources and services.